This is the latest recevied weather packets stored in our database for station/object WO5CID. If no packets are shown the sender has not sent any weather packets the latest 10 day(s).
| Time | Temp. | Humidity | Pressure | Rain* | Wind** | Luminosity | Snow |
|---|---|---|---|---|---|---|---|
| 1777747562 | 20.56° C | 91% | 1009.8 hPa | 0 mm | - | 160 W/m² | - |
| 1777747258 | 20.56° C | 92% | 1010 hPa | 0 mm | - | 167 W/m² | - |
| 1777746954 | 20.56° C | 93% | 1010 hPa | 0 mm | - | 177 W/m² | - |
| 1777746650 | 20.56° C | 91% | 1009.7 hPa | 0 mm | - | 192 W/m² | - |
| 1777746346 | 20° C | 92% | 1009.7 hPa | 0 mm | - | 210 W/m² | - |
| 1777746041 | 20° C | 93% | 1009.8 hPa | 0 mm | - | 251 W/m² | - |
| 1777745734 | 20° C | 94% | 1009.7 hPa | 0 mm | - | 255 W/m² | - |
| 1777745433 | 20° C | 93% | 1010.1 hPa | 0 mm | - | 107 W/m² | - |
| 1777745129 | 20° C | 93% | 1010.1 hPa | 1.78 mm | - | 50 W/m² | - |
| 1777744826 | 20.56° C | 92% | 1010.3 hPa | 3.05 mm | - | 36 W/m² | - |
| 1777744520 | 20.56° C | 91% | 1010.2 hPa | 4.32 mm | - | 24 W/m² | - |
| 1777744216 | 21.11° C | 90% | 1009.9 hPa | 6.1 mm | - | 22 W/m² | - |
| 1777743914 | 22.22° C | 90% | 1010.1 hPa | 4.83 mm | - | 20 W/m² | - |
| 1777743609 | 22.22° C | 94% | 1010 hPa | 3.05 mm | - | 16 W/m² | - |
| 1777743307 | 22.22° C | 97% | 1010.4 hPa | 3.05 mm | - | 18 W/m² | - |
| 1777743005 | 22.22° C | 97% | 1010.5 hPa | 3.05 mm | - | 20 W/m² | - |
| 1777742701 | 22.22° C | 96% | 1010 hPa | 1.27 mm | - | 23 W/m² | - |
| 1777742392 | 22.22° C | 96% | 1010.1 hPa | 1.78 mm | - | 22 W/m² | - |
| 1777742088 | 22.22° C | 96% | 1009.8 hPa | 3.56 mm | - | 23 W/m² | - |
| 1777741785 | 22.22° C | 96% | 1009.9 hPa | 4.83 mm | - | 26 W/m² | - |
| 1777741482 | 22.22° C | 96% | 1010 hPa | 4.83 mm | - | 25 W/m² | - |
| 1777741178 | 22.22° C | 95% | 1010.5 hPa | 1.27 mm | - | 26 W/m² | - |
| 1777740875 | 22.22° C | 95% | 1010 hPa | 0 mm | - | 17 W/m² | - |
| 1777740572 | 22.22° C | 94% | 1010.1 hPa | 0 mm | - | 22 W/m² | - |
| 1777740268 | 22.22° C | 93% | 1010.4 hPa | 4.83 mm | - | 26 W/m² | - |
* Rain latest hour (hover to see other rain measurements)
** Current wind speed in m/s (hover to see current wind gust speed)